Total_Precipitation_Accumulation
2.01 2.04 1.56 0.97 0.75 0.61 0.56 0.58 0.51 0.44 0.41 0.56 0.62 0.59 0.61 0.58 0.56 0.58 0.60 0.60 0.71 0.86 0.99 1.18 1.38 1.75 2.02 2.33 2.64 2.70 2.90 3.06 3.22 3.33 3.28 3.08 2.83 2.69 2.59 2.52 2.47 2.29 2.11 1.99
1.92 1.54 0.85 0.68 0.68 0.68 0.69 0.72 0.57 0.47 0.42 0.53 0.57 0.54 0.58 0.64 0.61 0.54 0.51 0.53 0.59 0.73 0.86 0.98 1.16 1.47 1.69 1.89 2.13 2.30 2.45 2.65 2.86 2.98 2.97 2.98 2.98 2.81 2.61 2.54 2.51 2.47 2.39 2.24
1.36 0.90 0.62 0.72 0.82 0.89 0.80 0.74 0.61 0.54 0.49 0.55 0.59 0.61 0.55 0.57 0.58 0.56 0.54 0.53 0.59 0.72 0.74 0.82 0.95 1.21 1.40 1.54 1.75 1.94 2.10 2.22 2.32 2.69 2.97 3.00 3.07 2.99 2.66 2.41 2.26 2.35 2.46 2.46
1.13 0.68 0.70 0.86 0.82 0.85 0.89 0.56 0.55 0.59 0.79 0.86 0.64 0.81 0.59 0.52 0.52 0.56 0.57 0.58 0.66 0.73 0.77 0.81 0.88 1.04 1.15 1.23 1.43 1.66 1.89 2.02 2.04 2.32 2.60 2.62 2.48 2.44 2.30 2.21 2.25 2.31 2.37 2.45
1.19 0.77 0.78 0.94 0.70 0.71 0.74 0.54 0.64 0.72 0.87 0.93 0.62 0.74 0.67 0.50 0.58 0.60 0.60 0.64 0.70 0.67 0.70 0.80 0.84 0.89 0.98 1.04 1.14 1.33 1.66 1.85 1.88 1.94 2.17 2.38 2.41 2.34 2.35 2.33 2.31 2.26 2.18 2.22
0.89 0.79 0.88 0.81 0.60 0.68 0.77 0.88 1.00 1.04 1.34 1.37 0.58 0.62 0.67 0.58 0.62 0.59 0.54 0.60 0.63 0.61 0.66 0.72 0.73 0.78 0.90 0.92 0.94 1.08 1.27 1.62 1.79 1.82 1.89 2.04 2.12 2.09 2.14 2.22 2.24 2.25 2.16 2.04
1.08 0.89 0.82 0.82 0.99 1.00 1.22 1.78 2.25 2.15 1.96 1.06 0.36 0.47 0.66 0.58 0.54 0.57 0.54 0.52 0.55 0.60 0.61 0.66 0.71 0.80 0.85 0.85 0.83 0.89 1.00 1.27 1.54 1.64 1.63 1.70 1.85 1.90 1.88 1.93 2.06 2.09 2.05 1.94
1.17 1.05 0.75 0.85 1.16 1.24 1.18 1.54 1.77 1.43 0.94 0.51 0.34 0.48 0.60 0.49 0.47 0.45 0.40 0.39 0.46 0.53 0.53 0.58 0.62 0.68 0.70 0.70 0.75 0.82 0.90 1.00 1.16 1.30 1.39 1.46 1.56 1.65 1.62 1.61 1.75 1.82 1.78 1.77
0.99 0.82 0.51 0.62 0.76 0.94 1.14 1.21 1.04 1.25 0.86 0.59 0.44 0.46 0.48 0.36 0.35 0.36 0.35 0.35 0.39 0.41 0.41 0.44 0.50 0.53 0.54 0.55 0.63 0.71 0.75 0.81 0.90 1.02 1.16 1.28 1.30 1.40 1.47 1.48 1.55 1.68 1.66 1.61
0.96 0.99 0.58 0.63 0.88 1.00 1.04 1.02 1.22 1.82 1.45 0.84 0.47 0.42 0.50 0.42 0.38 0.39 0.38 0.36 0.35 0.32 0.34 0.37 0.43 0.48 0.50 0.50 0.48 0.51 0.62 0.74 0.81 0.83 0.95 1.10 1.17 1.18 1.26 1.34 1.38 1.43 1.42 1.38
0.84 1.19 0.85 0.84 1.11 1.07 1.06 1.28 1.42 1.49 1.24 1.08 0.74 0.61 0.52 0.44 0.41 0.41 0.41 0.36 0.34 0.31 0.33 0.34 0.36 0.41 0.50 0.51 0.46 0.43 0.51 0.63 0.69 0.72 0.78 0.88 0.99 1.05 1.09 1.12 1.16 1.19 1.20 1.20
0.82 1.33 1.06 0.74 0.65 0.70 0.90 1.03 1.26 1.70 1.31 1.00 0.85 0.69 0.48 0.39 0.38 0.39 0.39 0.37 0.37 0.36 0.37 0.34 0.32 0.35 0.45 0.51 0.51 0.48 0.49 0.55 0.62 0.65 0.70 0.79 0.83 0.89 1.00 1.06 1.02 1.01 1.04 1.06
1.12 1.60 1.47 1.05 0.92 0.92 1.05 0.93 0.98 1.37 1.68 1.33 1.06 0.72 0.44 0.34 0.32 0.33 0.36 0.38 0.39 0.39 0.40 0.37 0.34 0.33 0.39 0.48 0.53 0.50 0.51 0.53 0.57 0.62 0.65 0.72 0.75 0.76 0.83 0.93 0.97 0.96 0.98 1.03
1.38 1.62 1.34 1.13 1.07 1.09 1.03 0.82 0.94 1.66 2.09 1.25 0.72 0.51 0.37 0.34 0.39 0.38 0.36 0.37 0.41 0.43 0.43 0.42 0.44 0.40 0.39 0.43 0.48 0.47 0.51 0.52 0.53 0.59 0.62 0.64 0.72 0.72 0.73 0.78 0.85 0.90 0.91 0.95
1.13 1.47 0.99 0.65 0.53 0.71 0.76 0.75 0.87 1.25 1.29 1.23 0.73 0.47 0.42 0.43 0.48 0.46 0.41 0.36 0.35 0.39 0.40 0.40 0.42 0.45 0.43 0.42 0.45 0.44 0.47 0.51 0.49 0.54 0.58 0.60 0.65 0.68 0.72 0.74 0.78 0.84 0.87 0.90
0.91 1.21 0.99 0.71 0.45 0.54 0.63 0.62 0.65 0.77 0.84 0.85 0.63 0.59 0.49 0.46 0.43 0.41 0.39 0.35 0.35 0.36 0.39 0.38 0.35 0.39 0.39 0.42 0.45 0.47 0.47 0.49 0.51 0.51 0.52 0.56 0.60 0.62 0.67 0.73 0.75 0.77 0.83 0.89
0.83 1.08 1.25 0.88 0.50 0.63 0.79 0.72 0.71 0.73 0.73 0.74 0.77 0.70 0.56 0.51 0.47 0.45 0.42 0.38 0.37 0.33 0.32 0.33 0.33 0.35 0.36 0.38 0.41 0.44 0.46 0.47 0.50 0.53 0.52 0.54 0.58 0.61 0.64 0.71 0.79 0.86 0.90 0.99
0.58 0.93 1.38 1.03 0.72 0.92 0.75 0.58 0.60 0.63 0.66 0.70 0.68 0.58 0.53 0.50 0.48 0.46 0.42 0.37 0.34 0.31 0.29 0.27 0.28 0.27 0.28 0.30 0.33 0.38 0.41 0.45 0.48 0.53 0.58 0.60 0.61 0.67 0.73 0.77 0.84 0.93 1.01 1.09
0.33 0.78 1.33 1.18 0.90 0.63 0.43 0.40 0.54 0.63 0.67 0.64 0.52 0.42 0.40 0.39 0.40 0.41 0.37 0.32 0.31 0.30 0.32 0.30 0.29 0.28 0.28 0.30 0.33 0.39 0.44 0.46 0.46 0.51 0.58 0.63 0.65 0.74 0.81 0.82 0.87 0.94 0.99 1.05
0.31 0.65 1.30 1.24 1.06 0.61 0.43 0.27 0.30 0.48 0.72 0.52 0.44 0.43 0.42 0.42 0.49 0.44 0.34 0.31 0.31 0.29 0.29 0.33 0.34 0.31 0.33 0.35 0.37 0.43 0.51 0.59 0.61 0.60 0.64 0.71 0.79 0.88 0.91 0.88 0.88 0.87 0.88 0.89
0.50 0.90 1.20 1.04 0.99 0.54 0.38 0.24 0.25 0.65 0.79 0.42 0.40 0.43 0.45 0.49 0.50 0.42 0.32 0.29 0.32 0.34 0.32 0.33 0.37 0.38 0.41 0.43 0.44 0.46 0.51 0.65 0.72 0.74 0.75 0.77 0.84 0.88 0.90 0.86 0.82 0.79 0.75 0.75
0.48 0.67 0.75 0.79 1.02 0.76 0.40 0.31 0.57 0.72 0.44 0.37 0.38 0.42 0.45 0.44 0.36 0.31 0.32 0.31 0.30 0.31 0.31 0.35 0.41 0.45 0.45 0.50 0.56 0.56 0.58 0.65 0.71 0.75 0.76 0.75 0.75 0.76 0.80 0.81 0.78 0.74 0.73 0.72
0.52 0.64 0.67 0.71 0.80 0.69 0.53 0.56 0.58 0.48 0.42 0.37 0.38 0.40 0.40 0.39 0.37 0.32 0.29 0.29 0.31 0.33 0.33 0.38 0.46 0.51 0.53 0.53 0.58 0.62 0.59 0.58 0.62 0.67 0.70 0.68 0.65 0.64 0.65 0.69 0.72 0.73 0.72 0.71
0.47 0.39 0.49 0.59 0.61 0.52 0.48 0.43 0.39 0.38 0.41 0.37 0.35 0.36 0.39 0.40 0.37 0.34 0.31 0.31 0.29 0.30 0.33 0.36 0.41 0.46 0.48 0.49 0.51 0.54 0.50 0.48 0.50 0.54 0.59 0.62 0.60 0.58 0.57 0.57 0.64 0.68 0.70 0.68
0.50 0.43 0.47 0.53 0.48 0.39 0.38 0.38 0.38 0.35 0.32 0.29 0.27 0.28 0.33 0.35 0.34 0.34 0.35 0.33 0.32 0.32 0.33 0.35 0.38 0.43 0.46 0.45 0.46 0.46 0.45 0.44 0.46 0.47 0.50 0.53 0.57 0.59 0.60 0.60 0.64 0.69 0.70 0.76
0.42 0.46 0.53 0.59 0.47 0.47 0.47 0.40 0.36 0.34 0.33 0.31 0.29 0.27 0.27 0.29 0.33 0.31 0.32 0.32 0.32 0.36 0.35 0.35 0.36 0.40 0.46 0.46 0.45 0.45 0.43 0.44 0.47 0.49 0.49 0.51 0.57 0.60 0.61 0.61 0.64 0.71 0.74 0.79